Preview of NWS' New Version of Forecast
This preview is not operational and should not be used for support decisions.

Regional Weather Roundup (RWR)

Issued by Gray - Portland, ME (GYX)

                            
000
ASUS41 KGYX 161805
RWRGYX
WEATHER ROUNDUP FOR MAINE AND NEW HAMPSHIRE
NATIONAL WEATHER SERVICE GRAY ME
100 PM EST WED JAN 16 2019

MEZ002-005-006-010-012-015-018-020-021-024-026-027-029-161900-
MAINE
  
CITY           SKY/WX    TMP DP  RH WIND       PRES   REMARKS
PORTLAND       FAIR      35  22  58 SW10G16   29.83F                  
6HR MIN TEMP:  23; 6HR MAX TEMP:  35;                                

SANFORD        CLOUDY    34  21  59 SW17      29.85S                  
BAR HARBOR     CLOUDY    35  27  72 SW18G25   29.80F                  
WISCASSET      FAIR      35  22  58 SW8       29.82F                  
6HR MIN TEMP:  25; 6HR MAX TEMP:  35;                                

ROCKLAND       CLOUDY    35  24  64 SW15G23   29.80F                  
FRYEBURG       PTSUNNY   35  20  54 SW8G20    29.78F                  
6HR MIN TEMP:  20; 6HR MAX TEMP:  35;                                

LEWISTONAUBURN PTSUNNY   33  21  61 SW8       29.80F                  
AUGUSTA        FAIR      33  22  63 W7        29.79F                  
6HR MIN TEMP:  24; 6HR MAX TEMP:  33;                                

WATERVILLE     PTSUNNY   34  21  59 MISG      29.76F                  
BANGOR         CLOUDY    34  24  67 S12G21    29.77F                  
6HR MIN TEMP:  28; 6HR MAX TEMP:  34;                                

GREENVILLE       N/A     26  19  74 VRB5      29.65F                  
6HR MIN TEMP:  17; 6HR MAX TEMP:  26;                                

MILLINOCKET    CLOUDY    30  22  72 SW8       29.74F                  
6HR MIN TEMP:  10; 6HR MAX TEMP:  30; 6HR PCP: TRACE;                

HOULTON        LGT SNOW  26  23  88 S9        29.70F VSB 3/4          
6HR MIN TEMP:  15; 6HR MAX TEMP:  26; 6HR PCP: TRACE;                

PRESQUE ISLE   FLURRIES  26  21  81 S12       29.68F WCI  16          
6HR MIN TEMP:   9; 6HR MAX TEMP:  26; 6HR PCP: TRACE;                

FRENCHVILLE    LGT SNOW  21  16  81 SE8       29.59F                  
6HR MIN TEMP:   9; 6HR MAX TEMP:  21; 6HR PCP: TRACE;                

CARIBOU        CLOUDY    21  16  81 S7        29.65F                  
6HR MIN TEMP:   6; 6HR MAX TEMP:  21; 6HR PCP:  0.05;                

$$

NHZ002-005-008-009-011-012-014-161900-
NEW HAMPSHIRE
  
CITY           SKY/WX    TMP DP  RH WIND       PRES   REMARKS
PORTSMOUTH     CLOUDY    35  19  51 W8        29.85F                  
ROCHESTER      CLOUDY    35  22  58 VRB5      29.84F                  
6HR MIN TEMP:  21; 6HR MAX TEMP:  35;                                

NASHUA         CLOUDY    35  22  58 W8        29.90S                  
MANCHESTER     CLOUDY    34  21  59 SW8       29.87F                  
6HR MIN TEMP:  20; 6HR MAX TEMP:  35;                                

CONCORD        CLOUDY    33  22  63 W10       29.87S                  
6HR MIN TEMP:  19; 6HR MAX TEMP:  33;                                

LACONIA        CLOUDY    33  22  63 SW10G18   29.83S                  
PLYMOUTH       CLOUDY    34  22  61 W5        29.81F                  
BERLIN         CLOUDY    33  21  61 W8        29.73F                  
6HR MIN TEMP:  23; 6HR MAX TEMP:  33; 6HR PCP: TRACE;                

WHITEFIELD     CLOUDY    31  22  69 SW8       29.76F                  
6HR MIN TEMP:  23; 6HR MAX TEMP:  32;                                

JAFFREY        CLOUDY    31  22  69 VRB6      29.85F                  
6HR MIN TEMP:  20; 6HR MAX TEMP:  31;                                

KEENE          CLOUDY    34  22  61 W7G18     29.89S                  
LEBANON        PTSUNNY   34  20  56 SW12      29.82F                  
6HR MIN TEMP:  27; 6HR MAX TEMP:  34;                                

MT WASHINGTON  NOT AVBL                                               
$$

VTZ005-007-008-161900-
VERMONT
  
CITY           SKY/WX    TMP DP  RH WIND       PRES   REMARKS
ST JOHNSBURY     N/A     32  22  66 MISG      29.76F                  
MONTPELIER     CLOUDY    30  21  69 SW8G16    29.80S                  
BURLINGTON     FLURRIES  32  24  72 S12       29.80F                  
$$

MAZ007-012-024-CTZ003-RIZ002-NYZ038-NYZ072-161900-
SOUTHERN NEW ENGLAND AND NY
  
CITY           SKY/WX    TMP DP  RH WIND       PRES   REMARKS
BOSTON         CLOUDY    39  21  48 W10       29.92F                  
WORCESTER      CLOUDY    30  20  66 W16G25    29.88F WCI  19          
NANTUCKET      CLOUDY    38  28  67 W22G30    29.97F                  
PROVIDENCE     FAIR      37  22  54 W15G22    29.96F                  
HARTFORD       PTSUNNY   34  22  61 SW8       29.95F                  
ALBANY         CLOUDY    38  20  48 W14       29.94F                  
NEW YORK CITY  CLOUDY    37  22  54 W8        30.04F                  
$$

ANZ081-ANZ082-ANZ150-NHZ014-MEZ023>029-161900-
COASTAL MARINE OBSERVATIONS
  
STATION/POSITION TIME  TEMP    WIND        PRES    WAVE
                       AIR SEA DIR/SP/G            HT/PER
                 (UTC) (F)     (DEG/KT/KT) (MB)    (FT/S)
MOUNT DESERT ROC 1700   35     200/ 30/ 33 1010.6F
MATINICUS ROCK   1700   36     210/ 29/ 34 1009.7F
ISLE OF SHOALS   1700   33     230/ 19/ 21 1011.8F
JEFFREYS LEDGE   1738      42                N/A     6/11
CASHES LEDGE BUO 1750   36 40              1010.5F   8/ 6
$$

.............KEY..............
   WCI - WIND CHILL
   TC  - TEMPERATURE IN CELSIUS
   VSB - VISIBILITY IN MILES
   HX  - HEAT INDEX
   FAIR- INDICATES FEW OR NO CLOUDS BELOW 12,000 FT, WITH NO 
         SIGNIFICANT WEATHER AND/OR OBSTRUCTIONS TO VISIBILITY.